Weather in Mora

United States     45°52′31″N   93°17′48″W
temp.,
°C
wind,
m/s
gust,
m/s
humid.,
%
clouds,
%
prec.,
mm/h
press.,
hPa
HPBL,
m
24 may, tue
tue2401:00+8ssw3782100 0.0 1024130
04:00+8wsw2479100 0.0 102479
07:00+9sse2579100 0.0 1024156
10:00+14sse346299 0.0 1023621
13:00+17se3453100 0.0 10231788
16:00+15se3667100 0.0 1022459
19:00+15se3669100 0.0 1021266
22:00+10se2379100 0.0 102249
25 may, wed
wed2501:00+9e3476100 0.0 102267
04:00+8ene3682100 0.0 1021124
07:00+9ene3881100 0.0 1020300
10:00+9ene3990100 0.5 1020448
13:00+8ne51296100 3.4 1018626
16:00+8ene51096100 1.1 1016615
19:00+7nne51097100 1.3 1015446
22:00+6ne51197100 0.0 1015464
26 may, thu
thu2601:00+5nne4898100 0.0 1014392
04:00+6nnw2596100 0.0 1014439
07:00+7n2595100 0.0 1015259
10:00+10n2383100 0.0 1015697
13:00+14nnw2366100 0.2 10151289
16:00+15n3364100 0.0 10141230
19:00+14ne237274 0.0 1015871
22:00+9e008596 0.0 101610
27 may, fri
fri2701:00+7nne229049 0.0 101614
04:00+6e228961 0.0 101710
07:00+8ese11835 0.0 101842
10:00+15ne01655 0.0 1016561
13:00+20nne12555 0.0 10151035
16:00+21n23540 0.0 10131445
19:00+20nw12700 0.0 1012135
22:00+13ene11823 0.0 101211
28 may, sat
sat2801:00+11sse008929 0.0 101310
04:00+10ssw22918 0.0 101310
07:00+11se2390100 0.0 1012102
10:00+17sse4667100 0.0 1011583
13:00+21s565731 0.0 10101443
16:00+22sse685695 0.0 10071507
19:00+20sse61071100 0.0 1006682
22:00+15se513835 0.0 1006430